Location: Cheching
(60.0667°N, 164.2167°W)
Time: 22:11:55
(UTC+00:00)

LilacSat-2 - Pass Details

Date: 21 January 2021
Orbit: 512 x 534 km, 97.5° (Epoch: 07 March)

Event Time Altitude Azimuth Distance (km) Brightness Sun altitude
Rises 04:29:15 0° 194° (SSW) 2,634 ? -12.4°
Reaches altitude 10° 04:31:33 10° 206° (SSW) 1,755 ? -12.7°
Maximum altitude 04:34:51 28° 266° (W) 1,017 ? -13.1°
Drops below altitude 10° 04:38:10 10° 327° (NNW) 1,779 ? -13.5°
Sets 04:40:32 0° 339° (NNW) 2,678 ? -13.8°
